EW0636 Weather Reports


time (UTC)temp
C
wind
direction
speed
KPH
gust
KPH
rain 1hr
cm
rain 24hr
cm
rain mn
cm
humidity
%
barometer
mb
20260906003036 32 310 0.0 0.0 0.00 0.00 0.00 60 1008.8
20260906001531 32 310 0.0 0.0 0.00 0.00 0.00 59 1008.8
20260906000044 32 310 0.0 1.6 0.00 0.00 0.00 59 1008.8
20260905234521 33 310 0.0 0.0 0.00 0.00 0.00 57 1008.8
20260905233017 33 315 0.0 0.0 0.00 0.00 0.00 57 1008.7
20260905231515 33 315 0.0 0.0 0.00 0.00 0.00 56 1008.8
20260905230008 34 315 0.0 0.0 0.00 0.00 0.00 54 1008.7
20260905224504 35 315 1.6 8.0 0.00 0.00 0.00 52 1008.6
20260905223100 36 319 0.0 4.8 0.00 0.00 0.00 48 1008.6
20260905221555 35 319 1.6 8.0 0.00 0.00 0.00 50 1008.6
20260905220051 35 319 0.0 0.0 0.00 0.00 0.00 53 1008.6
20260905214546 35 319 1.6 6.4 0.00 0.00 0.00 49 1008.7
20260905213042 36 319 0.0 0.0 0.00 0.00 0.00 50 1008.7
20260905211549 35 319 0.0 3.2 0.00 0.00 0.00 49 1008.8
20260905210033 36 319 0.0 1.6 0.00 0.00 0.00 50 1008.9
20260905204535 36 319 0.0 6.4 0.00 0.00 0.00 47 1009.1
20260905203024 36 325 0.0 9.7 0.00 0.00 0.00 45 1009.3
20260905201519 36 332 0.0 12.9 0.00 0.00 0.00 46 1009.6
20260905200025 36 9 0.0 8.0 0.00 0.00 0.00 45 1009.7
20260905194513 36 5 0.0 0.0 0.00 0.00 0.00 45 1009.9
20260905193009 37 5 0.0 4.8 0.00 0.00 0.00 45 1010.0
20260905191502 36 194 0.0 6.4 0.00 0.00 0.00 45 1010.4
20260905190057 37 325 0.0 3.2 0.00 0.00 0.00 44 1010.5
20260905184611 36 325 0.0 9.7 0.00 0.00 0.00 45 1010.6
20260905183051 36 321 0.0 9.7 0.00 0.00 0.00 48 1010.8
20260905181555 36 339 1.6 12.9 0.00 0.00 0.00 47 1011.0
20260905180045 36 295 0.0 8.0 0.00 0.00 0.00 49 1011.2
20260905174536 36 345 0.0 6.4 0.00 0.00 0.00 52 1011.4
20260905173033 35 322 1.6 14.5 0.00 0.00 0.00 51 1011.5
20260905171526 35 333 4.8 12.9 0.00 0.00 0.00 51 1011.8
20260905170022 35 92 0.0 4.8 0.00 0.00 0.00 53 1011.8
20260905164518 34 329 0.0 8.0 0.00 0.00 0.00 55 1011.9
20260905163012 34 223 1.6 6.4 0.00 0.00 0.00 55 1012.1
20260905161508 35 330 0.0 0.0 0.00 0.00 0.00 56 1012.2
20260905160004 35 328 0.0 1.6 0.00 0.00 0.00 58 1012.1
20260905154616 33 328 3.2 12.9 0.00 0.00 0.00 57 1012.4
20260905153102 33 329 0.0 6.4 0.00 0.00 0.00 58 1012.5
20260905151551 33 51 0.0 4.8 0.00 0.00 0.00 64 1012.6
20260905150047 32 53 0.0 1.6 0.00 0.00 0.00 66 1012.6
20260905144543 32 59 0.0 6.4 0.00 0.00 0.00 65 1012.7
20260905143038 31 60 0.0 4.8 0.00 0.00 0.00 70 1012.7
20260905141534 30 61 0.0 0.0 0.00 0.00 0.00 69 1012.7
20260905140030 29 225 0.0 0.0 0.00 0.00 0.00 71 1012.9
20260905134525 28 225 0.0 0.0 0.00 0.00 0.00 68 1012.9
20260905133035 27 302 0.0 0.0 0.00 0.00 0.00 62 1013.0
20260905131516 26 302 0.0 0.0 0.00 0.00 0.00 53 1013.0
20260905130014 26 269 0.0 0.0 0.00 0.00 0.00 30 1013.1
20260905124507 25 269 0.0 0.0 0.00 0.00 0.00 1 1013.1
20260905123002 23 269 0.0 0.0 0.00 0.00 0.00 1 1012.9
20260905121602 23 346 0.0 0.0 0.00 0.00 0.00 1 1012.8
20260905120053 22 188 0.0 0.0 0.00 0.00 0.00 1 1012.6
20260905114549 22 188 0.0 0.0 0.00 0.00 0.00 1 1012.6
20260905113050 22 188 0.0 0.0 0.00 0.00 0.00 1 1012.6
20260905111607 22 188 0.0 0.0 0.00 0.00 0.00 1 1012.4
20260905110041 22 188 0.0 0.0 0.00 0.00 0.00 1 1012.2
20260905104531 23 96 0.0 0.0 0.00 0.00 0.00 1 1012.1
20260905103028 23 96 0.0 0.0 0.00 0.00 0.00 1 1012.0
20260905101525 23 96 0.0 0.0 0.00 0.00 0.00 1 1011.9
20260905100021 23 96 0.0 0.0 0.00 0.00 0.00 1 1011.8
20260905094515 23 96 0.0 0.0 0.00 0.00 0.00 1 1011.8
20260905093010 23 96 0.0 0.0 0.00 0.00 0.00 19 1011.7
20260905091507 23 96 0.0 0.0 0.00 0.00 0.00 16 1011.4
20260905090014 23 96 0.0 0.0 0.00 0.00 0.00 9 1011.3
20260905084503 23 96 0.0 0.0 0.00 0.00 0.00 23 1011.4
20260905083005 23 96 0.0 0.0 0.00 0.00 0.00 24 1011.5
20260905081600 23 96 0.0 0.0 0.00 0.00 0.00 36 1011.5
20260905080113 24 96 0.0 0.0 0.00 0.00 0.00 34 1011.5
20260905074558 24 96 0.0 0.0 0.00 0.00 0.00 37 1011.5
20260905073058 24 96 0.0 0.0 0.00 0.00 0.00 37 1011.5
20260905071556 24 96 0.0 0.0 0.00 0.00 0.00 38 1011.6
20260905070052 24 96 0.0 0.0 0.00 0.00 0.00 47 1011.7
20260905064551 24 96 0.0 0.0 0.00 0.00 0.00 50 1011.8
20260905063047 24 96 0.0 0.0 0.00 0.00 0.00 52 1012.0
20260905061545 24 96 0.0 0.0 0.00 0.00 0.00 56 1012.1
20260905060043 25 96 0.0 0.0 0.00 0.00 0.00 65 1012.0
20260905054540 25 96 0.0 0.0 0.00 0.00 0.00 70 1012.1
20260905053042 25 96 0.0 1.6 0.00 0.00 0.00 70 1012.1
20260905051543 25 96 0.0 0.0 0.00 0.00 0.00 73 1012.0
20260905050034 26 96 0.0 0.0 0.00 0.00 0.00 75 1012.1
20260905044536 26 96 0.0 0.0 0.00 0.00 0.00 77 1012.0
20260905043030 26 96 0.0 0.0 0.00 0.00 0.00 77 1012.0
20260905041530 26 96 0.0 0.0 0.00 0.00 0.00 77 1012.1
20260905040032 26 96 0.0 0.0 0.00 0.00 0.00 77 1012.2
20260905034533 27 96 0.0 0.0 0.00 0.00 0.00 78 1012.1
20260905033100 27 96 0.0 0.0 0.00 0.00 0.00 77 1012.2
20260905031527 27 96 0.0 0.0 0.00 0.00 0.00 77 1012.4
20260905030037 27 96 0.0 0.0 0.00 0.00 0.00 77 1012.5
20260905024527 27 96 0.0 0.0 0.00 0.00 0.00 76 1012.6
20260905023026 28 96 0.0 0.0 0.00 0.00 0.00 75 1012.5
20260905021525 28 96 0.0 0.0 0.00 0.00 0.00 74 1012.4
20260905020025 28 96 0.0 0.0 0.00 0.00 0.00 74 1012.4
20260905014525 28 96 0.0 0.0 0.00 0.00 0.00 74 1012.3
20260905013024 28 96 0.0 0.0 0.00 0.00 0.00 74 1012.0
20260905011523 29 96 0.0 0.0 0.00 0.00 0.00 70 1011.9
20260905010023 30 96 0.0 0.0 0.00 0.00 0.00 66 1011.8
20260905004525 31 96 0.0 0.0 0.00 0.00 0.00 65 1011.7